• In Denmark
  • List of Countries
  • For 7 days
  • Water Temperature
  • Satellite Maps
  • Weather Map
  • Weather Widgets
  • user-avatar
    Login

    Hourly Weather Kitzbuhel

    Today, 19 November, Sunday

    Time Temperature Precipitation Wind Pressure Humidity
    00:00 -4°C° 0 mm 2 mps 676 mmHg 88%
    01:00 -3°C° 0 mm 2 mps 675 mmHg 86%
    02:00 -3°C° 0.1 mm 2 mps 674 mmHg 86%
    03:00 -3°C° 0.1 mm 2 mps 674 mmHg 85%
    04:00 -3°C° 0.1 mm 2 mps 674 mmHg 84%
    05:00 -2°C° 0.9 mm 2 mps 674 mmHg 88%
    06:00 -2°C° 0.9 mm 2 mps 673 mmHg 91%
    07:00 -2°C° 0 mm 2 mps 673 mmHg 94%
    08:00 -2°C° 1 mm 2 mps 673 mmHg 93%
    09:00 -1°C° 1 mm 2 mps 673 mmHg 93%
    10:00 +1°C° 1 mm 2 mps 673 mmHg 92%
    11:00 0°C° 0.8 mm 3 mps 673 mmHg 92%
    12:00 0°C° 0.8 mm 3 mps 673 mmHg 91%
    13:00 0°C° 0.8 mm 3 mps 673 mmHg 90%
    14:00 -1°C° 0.8 mm 3 mps 674 mmHg 92%
    15:00 -1°C° 0.8 mm 3 mps 674 mmHg 93%
    16:00 -2°C° 0.8 mm 2 mps 674 mmHg 94%
    17:00 -2°C° 0.7 mm 2 mps 674 mmHg 94%
    18:00 -2°C° 0.7 mm 2 mps 675 mmHg 95%
    19:00 -3°C° 0.7 mm 2 mps 675 mmHg 95%
    20:00 -4°C° 0.6 mm 3 mps 676 mmHg 95%
    21:00 -4°C° 0.6 mm 3 mps 676 mmHg 95%
    22:00 -4°C° 0.6 mm 3 mps 677 mmHg 94%
    23:00 -4°C° 0.6 mm 3 mps 677 mmHg 94%

    Tomorrow, 20 November, Monday

    Time Temperature Precipitation Wind Pressure Humidity
    00:00 -4°C° 0.6 mm 3 mps 677 mmHg 94%
    01:00 -4°C° 0.6 mm 3 mps 677 mmHg 94%
    02:00 -5°C° 0.3 mm 3 mps 677 mmHg 94%
    03:00 -5°C° 0.3 mm 3 mps 677 mmHg 94%
    04:00 -5°C° 0.3 mm 3 mps 678 mmHg 94%
    05:00 -6°C° 0.1 mm 3 mps 678 mmHg 93%
    06:00 -6°C° 0.1 mm 3 mps 678 mmHg 92%
    07:00 -6°C° 0.1 mm 2 mps 678 mmHg 92%
    08:00 -5°C° 0 mm 2 mps 678 mmHg 89%
    09:00 -3°C° 0 mm 2 mps 678 mmHg 87%
    10:00 -2°C° 0 mm 2 mps 679 mmHg 84%
    11:00 -1°C° 0 mm 2 mps 679 mmHg 83%
    12:00 +2°C° 0 mm 1 mps 678 mmHg 82%
    13:00 +3°C° 0 mm 1 mps 678 mmHg 81%
    14:00 +2°C° 0.1 mm 1 mps 678 mmHg 83%
    15:00 +2°C° 0.1 mm 1 mps 678 mmHg 85%
    16:00 +2°C° 0.1 mm 1 mps 677 mmHg 87%
    17:00 +1°C° 0.3 mm 1 mps 677 mmHg 88%
    18:00 -1°C° 0.3 mm 2 mps 677 mmHg 89%
    19:00 -1°C° 0.3 mm 2 mps 677 mmHg 90%
    20:00 +1°C° 0.2 mm 2 mps 677 mmHg 90%
    21:00 +1°C° 0.2 mm 2 mps 677 mmHg 90%
    22:00 +1°C° 0.2 mm 2 mps 677 mmHg 90%
    23:00 +1°C° 0.1 mm 2 mps 677 mmHg 89%

    Day after tomorrow, 21 November, Tuesday

    Time Temperature Precipitation Wind Pressure Humidity
    00:00 +1°C° 0.1 mm 2 mps 677 mmHg 87%
    01:00 +1°C° 0.1 mm 2 mps 676 mmHg 86%
    02:00 +1°C° 0.1 mm 2 mps 676 mmHg 85%
    03:00 +2°C° 0.1 mm 2 mps 676 mmHg 85%
    04:00 +2°C° 0.1 mm 2 mps 676 mmHg 84%
    05:00 +2°C° 0.4 mm 2 mps 676 mmHg 85%
    06:00 +2°C° 0.4 mm 2 mps 676 mmHg 87%
    07:00 +2°C° 0.4 mm 2 mps 676 mmHg 88%
    08:00 +3°C° 0.3 mm 2 mps 676 mmHg 89%
    09:00 +3°C° 0.3 mm 2 mps 677 mmHg 90%
    10:00 +4°C° 0.3 mm 2 mps 677 mmHg 91%
    11:00 +4°C° 0.2 mm 2 mps 677 mmHg 92%
    12:00 +5°C° 0.2 mm 2 mps 676 mmHg 93%
    13:00 +5°C° 0.2 mm 2 mps 676 mmHg 95%
    14:00 +5°C° 0.1 mm 2 mps 676 mmHg 94%
    15:00 +5°C° 0.1 mm 2 mps 676 mmHg 93%
    16:00 +5°C° 0.1 mm 2 mps 676 mmHg 93%
    17:00 +4°C° 0 mm 2 mps 676 mmHg 92%
    18:00 +4°C° 0 mm 2 mps 676 mmHg 91%
    19:00 +4°C° 0 mm 2 mps 677 mmHg 90%
    20:00 +4°C° 0 mm 2 mps 677 mmHg 88%
    21:00 +3°C° 0 mm 2 mps 677 mmHg 87%
    22:00 +3°C° 0 mm 2 mps 677 mmHg 86%
    23:00 +3°C° 0 mm 2 mps 677 mmHg 85%

    22 November, Wednesday

    Time Temperature Precipitation Wind Pressure Humidity
    00:00 +3°C° 0 mm 2 mps 677 mmHg 84%
    01:00 +2°C° 0 mm 2 mps 676 mmHg 83%
    02:00 +2°C° 0 mm 2 mps 676 mmHg 83%
    03:00 +2°C° 0 mm 2 mps 676 mmHg 82%
    04:00 +2°C° 0 mm 2 mps 676 mmHg 82%
    05:00 +2°C° 0 mm 2 mps 676 mmHg 82%
    06:00 +2°C° 0 mm 2 mps 676 mmHg 82%
    07:00 +2°C° 0 mm 2 mps 676 mmHg 81%
    08:00 +3°C° 0 mm 2 mps 677 mmHg 83%
    09:00 +4°C° 0 mm 2 mps 677 mmHg 85%
    10:00 +7°C° 0 mm 1 mps 677 mmHg 87%
    11:00 +8°C° 0 mm 1 mps 677 mmHg 88%
    12:00 +8°C° 0 mm 1 mps 677 mmHg 90%
    13:00 +9°C° 0 mm 1 mps 677 mmHg 91%
    14:00 +8°C° 0 mm 1 mps 676 mmHg 90%
    15:00 +7°C° 0 mm 1 mps 676 mmHg 88%
    16:00 +6°C° 0 mm 1 mps 676 mmHg 86%
    17:00 +5°C° 0 mm 1 mps 676 mmHg 84%
    18:00 +4°C° 0 mm 2 mps 676 mmHg 82%
    19:00 +3°C° 0 mm 2 mps 676 mmHg 80%
    20:00 +2°C° 0 mm 2 mps 676 mmHg 79%
    21:00 +2°C° 0 mm 2 mps 676 mmHg 78%
    22:00 +2°C° 0 mm 2 mps 677 mmHg 77%
    23:00 +2°C° 0 mm 2 mps 676 mmHg 77%

    23 November, Thursday

    Time Temperature Precipitation Wind Pressure Humidity
    00:00 +2°C° 0 mm 2 mps 676 mmHg 77%
    01:00 +2°C° 0 mm 2 mps 676 mmHg 76%
    02:00 +2°C° 0 mm 2 mps 676 mmHg 76%
    03:00 +2°C° 0 mm 2 mps 676 mmHg 77%
    04:00 +1°C° 0 mm 2 mps 676 mmHg 77%
    05:00 +1°C° 0 mm 2 mps 676 mmHg 76%
    06:00 +1°C° 0 mm 2 mps 677 mmHg 76%
    07:00 +1°C° 0 mm 2 mps 677 mmHg 75%
    08:00 +3°C° 0 mm 2 mps 677 mmHg 76%
    09:00 +5°C° 0 mm 1 mps 678 mmHg 78%
    10:00 +7°C° 0 mm 1 mps 678 mmHg 79%
    11:00 +8°C° 0 mm 1 mps 678 mmHg 81%
    12:00 +9°C° 0 mm 1 mps 678 mmHg 84%
    13:00 +10°C° 0 mm 1 mps 678 mmHg 86%
    14:00 +8°C° 0 mm 1 mps 678 mmHg 84%
    15:00 +7°C° 0 mm 1 mps 678 mmHg 83%
    16:00 +6°C° 0 mm 1 mps 678 mmHg 81%
    17:00 +5°C° 0 mm 1 mps 678 mmHg 79%
    18:00 +4°C° 0 mm 1 mps 679 mmHg 78%
    19:00 +2°C° 0 mm 2 mps 679 mmHg 76%
    20:00 +2°C° 0 mm 2 mps 679 mmHg 74%
    21:00 +2°C° 0 mm 2 mps 679 mmHg 72%
    22:00 +2°C° 0 mm 2 mps 679 mmHg 70%
    23:00 +2°C° 0 mm 2 mps 679 mmHg 69%

    24 November, Friday

    Time Temperature Precipitation Wind Pressure Humidity
    00:00 +2°C° 0 mm 2 mps 679 mmHg 68%
    01:00 +2°C° 0 mm 2 mps 679 mmHg 67%
    02:00 +1°C° 0 mm 2 mps 679 mmHg 67%
    03:00 +1°C° 0 mm 2 mps 679 mmHg 67%
    04:00 +1°C° 0 mm 2 mps 679 mmHg 67%
    05:00 +1°C° 0 mm 2 mps 679 mmHg 68%
    06:00 +1°C° 0 mm 2 mps 679 mmHg 68%
    07:00 +1°C° 0 mm 2 mps 679 mmHg 68%
    08:00 +2°C° 0 mm 2 mps 679 mmHg 70%
    09:00 +4°C° 0 mm 2 mps 679 mmHg 71%
    10:00 +5°C° 0 mm 2 mps 679 mmHg 73%
    11:00 +6°C° 0 mm 2 mps 679 mmHg 75%
    12:00 +8°C° 0 mm 1 mps 679 mmHg 78%
    13:00 +9°C° 0 mm 1 mps 678 mmHg 80%
    14:00 +8°C° 0 mm 1 mps 678 mmHg 81%
    15:00 +6°C° 0 mm 2 mps 678 mmHg 82%
    16:00 +5°C° 0 mm 2 mps 677 mmHg 83%
    17:00 +4°C° 0 mm 2 mps 677 mmHg 82%
    18:00 +3°C° 0 mm 2 mps 678 mmHg 82%
    19:00 +2°C° 0 mm 2 mps 678 mmHg 81%
    20:00 +2°C° 0 mm 2 mps 677 mmHg 80%
    21:00 +2°C° 0 mm 2 mps 677 mmHg 79%
    22:00 +1°C° 0 mm 2 mps 677 mmHg 79%
    23:00 +1°C° 0 mm 2 mps 677 mmHg 79%
    Show more